BEL4KY EDDF-EBBR

Flight info

Callsign BEL4KY
Flight time 0h 36m
Altitude 22000
Route SOBRA2L SOBRA Y180 BITBU Y181 GOPAS N852 LNO
Aircraft A320/M-SDE3FGHIRWY/LB1

Departure

Time 2026-05-07 21:19
Airport Frankfurt Main Airport (EDDF)

Arrival

Time 2026-05-07 21:55
Airport Brussels Airport (EBBR)
Time Latitude Longitude Altitude Speed Heading
2026-05-07 20:53 50.04882 8.57153 363 ft 0 kts 160°
2026-05-07 21:12 50.04878 8.57153 356 ft 4 kts 177°
2026-05-07 21:12 50.04851 8.57084 356 ft 10 kts 229°
2026-05-07 21:12 50.04777 8.57022 363 ft 14 kts 206°
2026-05-07 21:13 50.04677 8.56950 360 ft 16 kts 205°
2026-05-07 21:13 50.04565 8.56893 361 ft 14 kts 197°
2026-05-07 21:13 50.04468 8.56847 365 ft 14 kts 214°
2026-05-07 21:13 50.04419 8.56688 360 ft 19 kts 252°
2026-05-07 21:14 50.04369 8.56482 363 ft 21 kts 248°
2026-05-07 21:14 50.04318 8.56268 358 ft 21 kts 249°
2026-05-07 21:14 50.04266 8.56049 359 ft 22 kts 250°
2026-05-07 21:14 50.04212 8.55827 353 ft 23 kts 249°
2026-05-07 21:15 50.04155 8.55585 351 ft 25 kts 250°
2026-05-07 21:15 50.04092 8.55324 357 ft 26 kts 249°
2026-05-07 21:15 50.04028 8.55059 354 ft 27 kts 250°
2026-05-07 21:15 50.03960 8.54772 354 ft 30 kts 249°
2026-05-07 21:16 50.03889 8.54472 349 ft 25 kts 249°
2026-05-07 21:16 50.03809 8.54252 347 ft 19 kts 246°
2026-05-07 21:16 50.03763 8.54073 346 ft 17 kts 248°
2026-05-07 21:16 50.03723 8.53902 343 ft 16 kts 250°
2026-05-07 21:17 50.03697 8.53794 344 ft 16 kts 249°
2026-05-07 21:17 50.03658 8.53633 347 ft 17 kts 250°
2026-05-07 21:17 50.03607 8.53430 336 ft 22 kts 250°
2026-05-07 21:17 50.03556 8.53214 338 ft 21 kts 250°
2026-05-07 21:18 50.03502 8.52993 336 ft 23 kts 249°
2026-05-07 21:18 50.03449 8.52792 336 ft 16 kts 246°
2026-05-07 21:18 50.03409 8.52635 334 ft 15 kts 246°
2026-05-07 21:18 50.03326 8.52594 334 ft 17 kts 180°
2026-05-07 21:19 50.02980 8.52598 335 ft 86 kts 179°
2026-05-07 21:19 50.02173 8.52607 335 ft 144 kts 179°
2026-05-07 21:19 50.01017 8.52616 460 ft 178 kts 179°
2026-05-07 21:19 49.99813 8.52635 1243 ft 170 kts 178°
2026-05-07 21:20 49.98643 8.52671 2012 ft 166 kts 176°
2026-05-07 21:20 49.97507 8.52722 2711 ft 160 kts 176°
2026-05-07 21:20 49.96365 8.52805 3136 ft 174 kts 175°
2026-05-07 21:20 49.95081 8.52913 3411 ft 196 kts 176°
2026-05-07 21:21 49.93643 8.53030 3681 ft 219 kts 176°
2026-05-07 21:21 49.92057 8.53152 4049 ft 235 kts 177°
2026-05-07 21:21 49.90412 8.53272 4871 ft 237 kts 178°
2026-05-07 21:21 49.88751 8.53390 5689 ft 240 kts 178°
2026-05-07 21:22 49.87084 8.53243 6509 ft 242 kts 192°
2026-05-07 21:22 49.85403 8.52428 6883 ft 265 kts 201°
2026-05-07 21:22 49.83638 8.51419 7545 ft 274 kts 201°
2026-05-07 21:22 49.81835 8.50389 8358 ft 278 kts 201°
2026-05-07 21:23 49.80004 8.49349 9218 ft 282 kts 201°
2026-05-07 21:23 49.78207 8.48109 10024 ft 285 kts 215°
2026-05-07 21:23 49.76788 8.45946 10609 ft 295 kts 237°
2026-05-07 21:23 49.76035 8.42909 10834 ft 316 kts 263°
2026-05-07 21:24 49.76238 8.39435 11185 ft 333 kts 284°
2026-05-07 21:24 49.76833 8.35943 11850 ft 338 kts 284°
2026-05-07 21:24 49.77418 8.32396 12589 ft 342 kts 283°
2026-05-07 21:24 49.77996 8.28810 13328 ft 345 kts 283°
2026-05-07 21:25 49.78574 8.25183 14041 ft 349 kts 283°
2026-05-07 21:25 49.79157 8.21522 14688 ft 352 kts 283°
2026-05-07 21:25 49.79745 8.17833 15339 ft 355 kts 283°
2026-05-07 21:25 49.80338 8.14110 15988 ft 358 kts 283°
2026-05-07 21:26 49.80927 8.10405 16612 ft 361 kts 283°
2026-05-07 21:26 49.81536 8.06572 17254 ft 364 kts 283°
2026-05-07 21:26 49.82143 8.02748 17898 ft 367 kts 283°
2026-05-07 21:26 49.82745 7.98953 18498 ft 369 kts 283°
2026-05-07 21:27 49.83355 7.95080 19042 ft 372 kts 283°
2026-05-07 21:27 49.83970 7.91163 19601 ft 375 kts 283°
2026-05-07 21:27 49.84587 7.87215 20152 ft 378 kts 283°
2026-05-07 21:27 49.85204 7.83251 20705 ft 380 kts 282°
2026-05-07 21:28 49.85825 7.79255 21256 ft 383 kts 282°
2026-05-07 21:28 49.86453 7.75226 21798 ft 386 kts 282°
2026-05-07 21:28 49.87094 7.71174 22330 ft 388 kts 283°
2026-05-07 21:28 49.87738 7.67093 22841 ft 391 kts 283°
2026-05-07 21:29 49.88379 7.62975 23341 ft 394 kts 282°
2026-05-07 21:29 49.89020 7.58825 23802 ft 397 kts 282°
2026-05-07 21:29 49.89659 7.54660 24027 ft 398 kts 282°
2026-05-07 21:29 49.90300 7.50486 24086 ft 396 kts 282°
2026-05-07 21:30 49.90936 7.46336 24091 ft 395 kts 282°
2026-05-07 21:30 49.91570 7.42178 24091 ft 395 kts 282°
2026-05-07 21:30 49.92201 7.38030 24085 ft 395 kts 282°
2026-05-07 21:30 49.92830 7.33887 24084 ft 395 kts 282°
2026-05-07 21:31 49.93451 7.29787 24084 ft 395 kts 282°
2026-05-07 21:31 49.94080 7.25642 24082 ft 395 kts 282°
2026-05-07 21:31 49.94707 7.21504 24085 ft 394 kts 282°
2026-05-07 21:31 49.95331 7.17355 24083 ft 394 kts 282°
2026-05-07 21:32 49.95952 7.13199 24082 ft 394 kts 282°
2026-05-07 21:32 49.96571 7.09051 24081 ft 394 kts 282°
2026-05-07 21:32 49.97187 7.04912 24082 ft 394 kts 282°
2026-05-07 21:32 49.97804 7.00760 24081 ft 394 kts 282°
2026-05-07 21:33 49.98419 6.96604 24081 ft 394 kts 282°
2026-05-07 21:33 49.99023 6.92455 24083 ft 394 kts 282°
2026-05-07 21:33 49.99928 6.88449 24077 ft 395 kts 298°
2026-05-07 21:33 50.01548 6.84997 24077 ft 396 kts 308°
2026-05-07 21:34 50.03288 6.81672 24075 ft 396 kts 307°
2026-05-07 21:34 50.05017 6.78334 24071 ft 397 kts 307°
2026-05-07 21:34 50.06747 6.74971 24071 ft 397 kts 307°
2026-05-07 21:34 50.08446 6.71644 24071 ft 397 kts 307°
2026-05-07 21:35 50.10156 6.68280 24071 ft 397 kts 307°
2026-05-07 21:35 50.11862 6.64912 24070 ft 397 kts 307°
2026-05-07 21:35 50.13568 6.61534 24071 ft 397 kts 307°
2026-05-07 21:35 50.15279 6.58141 24071 ft 397 kts 307°
2026-05-07 21:36 50.16980 6.54766 24074 ft 397 kts 307°
2026-05-07 21:36 50.18691 6.51374 24075 ft 397 kts 307°
2026-05-07 21:36 50.20394 6.47988 24074 ft 397 kts 307°
2026-05-07 21:36 50.22098 6.44601 24074 ft 397 kts 307°
2026-05-07 21:37 50.23802 6.41212 24075 ft 397 kts 306°
2026-05-07 21:37 50.25506 6.37819 24082 ft 397 kts 306°
2026-05-07 21:37 50.27205 6.34426 24082 ft 397 kts 306°
2026-05-07 21:37 50.28907 6.31027 24081 ft 397 kts 306°
2026-05-07 21:38 50.30612 6.27620 24078 ft 397 kts 306°
2026-05-07 21:38 50.32315 6.24216 23958 ft 394 kts 306°
2026-05-07 21:38 50.33981 6.20881 23698 ft 387 kts 306°
2026-05-07 21:38 50.35613 6.17610 23429 ft 384 kts 306°
2026-05-07 21:39 50.37250 6.14322 23149 ft 381 kts 306°
2026-05-07 21:39 50.38865 6.11076 22751 ft 375 kts 306°
2026-05-07 21:39 50.40456 6.07872 22308 ft 370 kts 306°
2026-05-07 21:39 50.42030 6.04698 21871 ft 367 kts 306°
2026-05-07 21:40 50.43584 6.01558 21447 ft 363 kts 306°
2026-05-07 21:40 50.45145 5.98403 20998 ft 359 kts 306°
2026-05-07 21:40 50.46671 5.95312 20566 ft 356 kts 306°
2026-05-07 21:40 50.48181 5.92248 20112 ft 354 kts 306°
2026-05-07 21:41 50.49676 5.89206 19677 ft 351 kts 306°
2026-05-07 21:41 50.51168 5.86168 19234 ft 350 kts 306°
2026-05-07 21:41 50.52649 5.83153 18779 ft 349 kts 306°
2026-05-07 21:41 50.54132 5.80130 18318 ft 348 kts 306°
2026-05-07 21:42 50.55587 5.77162 17832 ft 347 kts 306°
2026-05-07 21:42 50.57056 5.74168 17381 ft 344 kts 306°
2026-05-07 21:42 50.58512 5.71198 16929 ft 342 kts 306°
2026-05-07 21:42 50.59971 5.68255 16474 ft 341 kts 307°
2026-05-07 21:43 50.61446 5.65343 16039 ft 339 kts 307°
2026-05-07 21:43 50.62926 5.62455 15602 ft 338 kts 307°
2026-05-07 21:43 50.64407 5.59577 15175 ft 338 kts 307°
2026-05-07 21:43 50.65883 5.56701 14745 ft 337 kts 307°
2026-05-07 21:44 50.67346 5.53838 14302 ft 336 kts 307°
2026-05-07 21:44 50.68809 5.50960 13854 ft 335 kts 307°
2026-05-07 21:44 50.70262 5.48092 13376 ft 334 kts 307°
2026-05-07 21:44 50.71706 5.45236 12927 ft 331 kts 307°
2026-05-07 21:45 50.73136 5.42403 12485 ft 329 kts 307°
2026-05-07 21:45 50.74560 5.39580 12022 ft 327 kts 307°
2026-05-07 21:45 50.75973 5.36782 11573 ft 326 kts 307°
2026-05-07 21:45 50.77383 5.33989 11117 ft 324 kts 307°
2026-05-07 21:46 50.78785 5.31210 10653 ft 323 kts 308°
2026-05-07 21:46 50.80169 5.28459 10436 ft 314 kts 308°
2026-05-07 21:46 50.81499 5.25811 10308 ft 302 kts 308°
2026-05-07 21:46 50.82782 5.23256 10111 ft 293 kts 308°
2026-05-07 21:47 50.84036 5.20752 9958 ft 288 kts 307°
2026-05-07 21:47 50.85283 5.18254 9623 ft 291 kts 307°
2026-05-07 21:47 50.86539 5.15730 9209 ft 289 kts 307°
2026-05-07 21:47 50.87764 5.13210 8757 ft 288 kts 303°
2026-05-07 21:48 50.88831 5.10543 8304 ft 288 kts 301°
2026-05-07 21:48 50.89895 5.07889 8091 ft 281 kts 302°
2026-05-07 21:48 50.90932 5.05318 7999 ft 281 kts 302°
2026-05-07 21:48 50.91999 5.02679 7540 ft 281 kts 302°
2026-05-07 21:49 50.93052 5.00067 7119 ft 280 kts 302°
2026-05-07 21:49 50.94099 4.97465 6718 ft 279 kts 302°
2026-05-07 21:49 50.95137 4.94880 6323 ft 277 kts 302°
2026-05-07 21:49 50.96148 4.92362 6180 ft 263 kts 302°
2026-05-07 21:50 50.97098 4.89996 5895 ft 248 kts 302°
2026-05-07 21:50 50.97891 4.87605 5352 ft 243 kts 288°
2026-05-07 21:50 50.98212 4.85025 4768 ft 242 kts 274°
2026-05-07 21:50 50.98364 4.82362 4105 ft 244 kts 275°
2026-05-07 21:51 50.98522 4.79700 3824 ft 231 kts 275°
2026-05-07 21:51 50.98640 4.77253 3725 ft 220 kts 267°
2026-05-07 21:51 50.98371 4.74935 3565 ft 211 kts 248°
2026-05-07 21:51 50.97763 4.72802 3245 ft 213 kts 244°
2026-05-07 21:52 50.97143 4.70674 2954 ft 213 kts 244°
2026-05-07 21:52 50.96535 4.68575 2664 ft 206 kts 244°
2026-05-07 21:52 50.95944 4.66538 2396 ft 199 kts 244°
2026-05-07 21:52 50.95387 4.64608 2156 ft 187 kts 244°
2026-05-07 21:53 50.94860 4.62782 1876 ft 177 kts 244°
2026-05-07 21:53 50.94362 4.61041 1673 ft 170 kts 244°
2026-05-07 21:53 50.93874 4.59350 1421 ft 164 kts 244°
2026-05-07 21:53 50.93418 4.57766 1198 ft 152 kts 244°
2026-05-07 21:54 50.92986 4.56263 1003 ft 148 kts 244°
2026-05-07 21:54 50.92565 4.54799 799 ft 145 kts 245°
2026-05-07 21:54 50.92147 4.53357 609 ft 143 kts 244°
2026-05-07 21:54 50.91731 4.51933 433 ft 142 kts 244°
2026-05-07 21:55 50.91324 4.50507 242 ft 141 kts 245°
2026-05-07 21:55 50.90922 4.49135 120 ft 130 kts 245°
2026-05-07 21:55 50.90629 4.48121 120 ft 61 kts 245°
2026-05-07 21:55 50.90518 4.47787 123 ft 29 kts 233°
2026-05-07 21:56 50.90402 4.47618 121 ft 13 kts 217°
2026-05-07 21:56 50.90342 4.47567 121 ft 8 kts 181°
2026-05-07 21:56 50.90312 4.47636 120 ft 8 kts 86°
2026-05-07 21:56 50.90332 4.47717 119 ft 7 kts 66°
2026-05-07 21:57 50.90351 4.47785 121 ft 6 kts 65°
2026-05-07 21:57 50.90371 4.47852 119 ft 12 kts 65°
2026-05-07 21:57 50.90401 4.48000 121 ft 11 kts 104°
2026-05-07 21:57 50.90367 4.48096 120 ft 9 kts 92°
2026-05-07 21:58 50.90390 4.48192 119 ft 11 kts 65°
2026-05-07 21:58 50.90427 4.48320 119 ft 13 kts 65°
2026-05-07 21:58 50.90464 4.48451 120 ft 13 kts 65°
2026-05-07 21:58 50.90499 4.48569 118 ft 11 kts 65°
2026-05-07 21:59 50.90529 4.48673 119 ft 10 kts 65°
2026-05-07 21:59 50.90524 4.48743 117 ft 6 kts 143°
2026-05-07 21:59 50.90490 4.48768 121 ft 4 kts 156°
2026-05-07 21:59 50.90468 4.48784 119 ft 2 kts 155°
2026-05-07 22:00 50.90460 4.48790 118 ft 0 kts 155°